Wind_Speed
16 17 17 17 17 17 16 16 15 15 15 15 15 16 16 16 18 12 11 4 3 4 2 4 5 3 4 2 2 1 3 5 7 7 6 9 7 7 7 9 10 9 10 12 24
18 18 18 18 18 18 18 16 14 14 15 15 15 14 14 14 16 15 9 11 6 2 1 4 4 6 4 2 2 3 3 4 5 6 8 11 11 11 12 14 15 11 12 20 23
19 19 19 20 19 19 18 17 15 15 16 15 14 13 11 10 7 1 15 9 5 3 1 2 4 3 5 3 4 4 4 7 10 8 8 12 13 13 15 18 15 13 9 10 11
20 20 21 21 20 19 19 18 17 17 17 16 14 11 9 3 4 5 11 8 6 4 2 2 5 3 4 5 5 4 9 11 10 10 10 13 15 18 15 23 16 17 15 11 10
21 21 22 22 22 21 21 20 20 18 19 16 12 7 3 5 8 9 10 7 5 3 5 4 6 4 7 7 7 12 11 13 10 13 11 15 16 15 21 18 17 16 15 11 10
22 23 23 23 23 22 22 21 21 19 17 14 9 3 3 6 3 8 10 8 7 6 5 5 4 5 6 7 6 7 11 15 13 12 8 13 13 8 16 15 16 14 10 10 10
24 25 26 27 26 24 23 23 22 18 12 10 6 5 7 11 3 9 11 8 6 7 6 4 3 4 7 7 6 8 11 14 13 10 3 5 9 11 17 13 12 11 10 9 9
27 27 28 28 28 27 25 24 20 13 8 7 2 5 6 4 5 10 11 7 7 5 4 1 3 6 4 6 6 5 7 4 4 8 5 6 10 8 9 13 16 16 14 10 11
29 31 31 30 29 27 26 23 16 5 5 2 4 6 6 0 3 11 12 8 9 5 4 4 3 4 4 5 6 7 5 7 8 7 3 7 11 10 12 14 13 9 8 9 9
31 32 32 30 28 26 24 14 6 0 1 5 7 4 4 1 6 7 15 12 5 6 5 4 5 4 5 5 4 4 7 10 9 4 7 8 18 15 11 11 10 7 8 7 6
34 34 31 29 27 18 18 4 2 2 7 7 4 8 15 6 5 6 9 9 8 5 5 7 5 8 9 9 10 8 9 11 12 11 2 7 14 17 12 8 6 8 6 8 6
36 33 30 28 19 10 9 4 5 3 9 11 10 6 7 1 3 7 8 7 6 9 12 5 9 12 8 4 7 8 11 14 11 2 4 11 19 18 11 1 3 5 7 7 8
36 28 29 26 7 11 14 11 10 9 5 6 3 2 3 3 4 3 8 5 7 10 11 9 11 3 5 7 10 10 10 13 10 8 9 8 10 5 6 4 4 8 6 5 6
35 24 27 21 3 13 5 14 11 7 4 4 4 2 3 4 3 2 7 6 4 5 4 8 8 3 7 9 8 12 4 5 6 5 3 7 5 8 8 8 5 10 8 7 7
34 20 21 15 8 5 11 15 11 4 5 4 3 1 1 4 1 3 3 3 7 9 2 7 7 6 8 8 7 4 2 6 7 6 6 4 3 6 6 7 10 8 8 7 8
30 15 19 12 7 8 15 14 6 1 6 4 3 5 11 3 4 3 4 3 5 5 7 14 9 5 5 7 5 8 7 12 9 3 3 10 6 6 4 7 7 9 7 9 11
24 9 13 9 8 20 15 6 2 3 5 5 7 8 13 4 3 4 4 6 4 4 4 10 7 3 3 5 6 4 6 3 1 2 5 5 1 9 2 8 10 10 8 9 9
16 6 7 8 18 12 7 3 3 5 5 9 9 17 7 5 3 2 4 6 8 8 5 4 6 6 6 3 3 7 5 3 4 1 3 6 4 4 9 10 10 9 8 10 9
9 3 2 27 12 7 3 2 4 6 7 13 16 9 5 4 3 7 4 6 6 11 4 5 4 2 6 3 1 3 4 2 3 5 1 4 4 2 9 9 8 12 12 9 10
9 5 7 22 10 3 2 2 4 7 9 9 5 8 9 13 10 10 7 7 7 11 10 5 7 8 1 2 7 6 5 1 2 3 4 3 4 5 7 7 11 11 9 8 9
6 3 11 20 6 2 3 4 4 9 10 6 7 8 8 11 11 7 4 4 9 11 10 7 4 8 11 5 8 3 3 5 4 3 3 2 5 5 9 11 11 9 8 9 11
7 3 18 17 2 3 3 4 8 10 11 6 6 8 6 9 7 6 6 5 9 10 7 6 4 5 12 18 17 9 5 7 3 7 4 6 8 6 10 18 13 10 10 8 9
6 3 13 11 4 5 3 2 3 8 8 6 6 6 8 6 5 8 7 3 9 9 9 7 4 5 9 4 6 5 10 6 8 4 5 3 4 4 7 15 12 10 8 7 9
3 3 4 4 3 4 5 4 5 4 2 6 5 3 11 7 7 8 11 3 13 9 15 4 4 7 8 14 16 14 16 15 12 6 6 12 14 14 18 15 13 14 11 10 9
4 3 1 4 5 5 3 5 7 8 5 6 3 9 9 5 16 6 14 15 9 16 2 3 5 7 11 16 18 20 20 18 16 14 11 17 18 15 11 10 9 8 10 7 11
4 4 5 4 3 5 1 7 7 9 6 6 7 11 10 10 12 16 15 10 8 6 5 8 5 13 13 15 18 20 17 18 19 15 18 18 18 7 8 9 12 12 14 10 12
9 4 2 5 4 4 4 6 8 7 6 3 11 13 12 11 11 13 15 17 17 17 15 14 7 6 6 9 13 7 6 7 9 7 6 5 6 10 11 15 16 15 11 12 13
Wind_Direction
0 357 355 355 353 349 341 335 329 324 320 319 316 315 311 306 305 306 256 212 194 268 334 296 268 349 276 243 284 353 268 259 297 330 330 340 318 301 295 284 270 260 263 273 282
356 352 351 350 350 350 346 339 332 329 325 321 318 319 321 319 308 269 236 223 223 199 283 338 344 335 266 226 212 240 266 264 7 331 309 307 303 300 299 287 275 274 261 256 258
352 350 347 346 345 345 345 341 333 328 323 317 317 317 323 328 284 99 185 207 192 160 277 304 299 277 273 153 226 236 242 322 316 311 317 297 286 287 286 277 270 273 262 260 257
350 347 345 342 341 338 336 334 329 321 320 312 308 311 318 330 311 136 173 182 173 160 213 277 247 250 288 249 196 266 253 270 291 303 304 285 290 282 274 269 280 278 275 274 269
348 346 343 341 340 337 334 330 328 322 316 307 295 293 322 231 252 175 178 172 167 162 230 272 279 315 265 326 305 268 270 268 287 298 280 277 270 269 273 269 267 261 261 254 249
347 345 341 338 336 334 331 326 324 322 317 308 281 253 235 242 150 181 167 176 181 199 218 242 326 340 286 262 276 300 306 295 286 266 260 270 279 275 273 265 264 267 263 239 246
346 345 343 339 336 332 329 325 322 318 312 304 275 204 253 247 174 182 178 188 196 219 264 220 304 273 333 270 295 306 297 284 255 241 256 9 283 223 251 264 251 251 254 252 229
345 343 341 337 334 331 326 323 318 313 310 301 235 212 258 225 192 196 194 195 196 213 244 325 249 270 250 313 298 230 239 293 134 174 174 110 276 291 317 322 289 275 265 246 236
345 342 339 335 331 328 324 322 312 299 307 223 160 215 271 302 208 221 211 216 198 213 227 216 228 235 248 236 274 201 263 268 303 172 187 188 278 278 285 290 293 290 285 256 235
344 343 339 336 332 330 327 319 310 163 111 200 257 248 217 245 157 195 200 220 199 198 236 223 220 241 212 217 244 289 277 295 293 295 225 256 277 296 300 288 283 308 313 275 248
345 344 342 341 336 340 348 8 222 186 232 241 255 262 309 106 136 179 185 213 218 210 237 177 236 224 238 236 262 308 301 284 284 281 285 268 277 285 291 273 334 323 326 349 249
348 347 348 344 345 19 353 13 37 307 303 270 285 312 303 199 243 179 180 203 194 229 222 226 249 244 282 330 293 284 282 277 280 222 269 294 289 285 264 35 301 306 59 21 5
350 349 349 347 14 24 55 29 343 339 265 298 64 353 44 186 257 177 181 208 265 251 253 220 249 251 271 277 276 261 260 271 280 341 291 270 284 238 147 191 262 53 76 78 61
350 350 352 355 38 343 63 344 341 336 285 197 142 127 176 252 200 68 203 272 245 270 294 260 276 302 286 261 259 274 313 331 316 327 264 29 287 306 165 188 100 60 50 37 32
349 352 359 17 343 36 321 329 325 262 348 28 71 30 228 263 99 144 229 203 254 280 252 260 303 236 256 250 262 264 63 285 280 274 307 274 161 260 162 121 98 81 57 22 16
349 352 4 8 345 341 327 320 296 286 255 45 74 5 350 190 184 123 206 221 282 286 243 255 267 219 226 319 292 309 302 267 229 212 269 213 174 282 170 133 112 95 55 23 7
348 356 18 7 330 327 333 295 315 205 33 14 339 344 315 297 294 170 257 214 247 300 310 319 262 112 71 272 213 235 266 300 357 188 229 89 75 244 89 89 100 92 54 32 358
351 351 14 351 334 341 321 247 249 7 11 2 336 305 258 27 350 288 240 261 60 357 303 272 301 163 157 256 334 258 273 219 282 213 280 174 237 286 101 94 99 81 65 31 359
354 350 350 343 344 350 293 309 3 11 352 329 319 301 314 131 355 323 345 29 49 27 348 325 299 75 205 286 187 351 216 305 292 275 288 236 245 356 125 113 96 63 44 23 17
345 295 21 349 340 321 264 60 48 27 347 327 292 355 339 341 328 351 304 22 357 17 337 302 298 277 166 237 239 233 0 293 249 236 234 240 247 191 122 102 70 51 32 24 13
327 283 349 352 331 251 30 30 15 1 9 335 336 311 335 342 343 306 317 52 16 349 328 336 262 291 312 243 280 214 255 209 259 250 264 314 284 88 131 81 75 53 29 22 19
308 324 350 352 49 41 36 12 3 355 9 341 337 325 321 337 305 298 13 55 38 359 351 355 294 276 272 272 265 278 311 302 258 274 249 241 254 276 156 81 69 42 35 22 24
325 303 4 32 49 12 29 37 72 14 15 355 342 357 349 297 310 327 7 112 41 6 1 344 312 320 307 256 30 25 335 334 303 287 250 265 266 128 105 60 46 33 37 5 18
318 340 351 53 40 1 5 39 350 102 324 337 301 325 349 323 317 303 305 326 347 322 323 244 244 255 263 297 322 301 308 306 304 279 308 262 283 307 333 16 27 18 6 355 16
10 61 20 353 20 335 24 30 356 9 346 320 262 30 354 306 316 262 335 320 317 302 260 269 262 288 302 308 301 290 289 291 278 273 269 285 288 308 348 11 20 359 340 335 14
15 357 345 294 274 323 68 46 15 356 320 323 342 331 326 301 297 310 321 320 278 310 339 329 286 319 297 274 261 271 279 271 270 277 270 276 286 359 9 3 9 346 330 22 6
359 1 271 276 345 359 34 356 331 329 304 345 329 314 306 320 328 298 285 275 266 277 283 282 275 303 272 315 328 288 317 324 293 331 343 9 28 5 5 358 355 332 14 7 354
Height
823 821 818 815 812 809 807 804 802 800 797 795 793 791 790 788 785 784 782 779 780 780 779 778 777 776 775 773 774 773 785 778 763 759 758 748 754 748 746 749 747 746 745 742 741
823 820 817 814 811 808 805 802 800 798 796 794 792 790 788 786 783 779 776 776 778 778 779 778 776 777 775 773 774 779 778 765 753 756 760 755 756 754 754 751 746 743 738 737 738
823 819 817 814 811 807 804 801 799 797 794 792 790 789 788 786 783 771 771 775 777 778 779 779 779 777 776 772 773 771 776 758 758 757 757 757 756 752 752 749 742 742 736 733 732
822 819 816 812 809 806 803 800 797 795 792 790 789 787 787 787 786 770 772 774 776 777 779 778 777 776 774 773 765 776 764 761 756 756 758 758 752 752 749 738 735 733 731 729 730
821 817 814 811 807 803 800 797 795 792 790 787 786 785 786 784 774 769 771 774 776 777 778 777 777 775 777 769 767 769 764 758 754 754 753 750 750 750 736 731 727 724 724 724 724
820 816 812 808 804 800 797 794 791 789 787 786 785 785 786 785 769 769 770 772 774 776 776 777 775 775 777 773 773 763 762 759 754 750 747 747 742 743 727 723 721 719 718 717 718
818 814 810 806 801 797 794 790 788 786 784 782 783 784 782 775 769 769 770 772 774 775 775 774 776 777 773 772 763 763 769 758 744 741 743 743 744 737 721 718 716 713 711 711 711
817 812 807 803 798 794 790 786 783 782 782 781 781 784 777 768 769 770 771 771 772 774 774 774 776 776 774 768 766 766 763 763 738 737 740 746 747 724 716 717 714 708 705 703 703
815 810 805 799 794 790 786 782 779 778 779 779 781 780 772 767 769 770 772 772 773 773 773 773 775 772 768 775 771 758 765 752 743 732 735 742 742 721 715 711 708 703 700 697 696
814 808 802 796 791 786 782 779 777 777 777 779 778 782 768 761 762 763 765 768 772 772 774 774 773 772 770 771 779 767 758 749 750 732 732 738 730 717 711 707 706 701 699 695 694
812 806 799 794 789 785 780 778 780 781 778 768 760 760 759 760 763 763 766 770 768 769 773 769 774 772 757 750 745 747 751 752 741 728 734 735 728 717 708 705 704 703 699 697 693
811 804 799 794 788 786 783 783 793 794 783 761 760 759 759 761 761 761 767 770 768 770 763 768 771 753 744 745 750 751 755 750 736 725 731 728 722 709 704 699 699 699 701 701 696
810 804 798 794 791 792 792 795 794 793 787 762 761 760 761 763 761 758 765 763 763 764 760 763 749 742 745 750 750 748 749 743 739 733 729 726 722 703 697 697 695 698 700 699 698
810 805 799 793 793 792 793 794 793 792 786 760 760 761 760 760 762 758 761 762 757 759 752 751 739 746 747 747 746 750 736 738 739 745 753 730 759 714 702 701 700 706 707 705 701
810 806 802 797 798 796 798 795 793 792 801 760 764 764 760 763 759 761 761 763 763 756 757 755 744 747 748 743 736 740 739 742 742 747 750 728 755 716 697 705 707 710 710 706 702
810 807 804 800 799 800 796 793 793 792 795 771 761 761 762 757 756 761 762 764 759 759 751 747 737 743 742 738 739 735 742 737 737 743 762 728 737 729 705 702 707 708 709 708 705
810 807 805 804 803 798 796 795 795 794 759 776 775 768 766 756 752 757 758 760 762 764 754 745 736 736 741 744 737 743 749 758 762 755 750 718 734 726 696 699 703 710 712 712 709
810 807 806 807 802 798 795 791 799 773 784 780 781 773 766 760 754 754 755 757 759 763 761 759 760 741 742 742 743 743 741 760 752 744 745 721 734 715 699 700 704 708 713 714 713
809 807 806 803 800 799 798 798 802 808 806 799 783 769 760 762 765 761 755 767 771 772 777 763 747 735 740 736 739 736 743 730 741 732 746 734 705 697 702 706 706 712 716 719 717
811 809 808 803 800 800 797 797 804 810 813 802 795 778 780 777 778 774 765 784 785 782 783 769 773 743 735 739 737 737 735 743 744 748 736 725 716 729 715 712 711 718 721 721 719
813 807 806 801 799 799 805 808 810 812 818 812 807 799 792 792 790 783 767 798 794 793 783 777 772 756 744 739 737 741 741 736 733 736 738 735 737 700 712 713 722 725 722 723 722
817 811 809 801 805 805 822 824 823 824 824 820 816 816 811 807 801 791 783 797 800 798 794 787 784 781 754 738 732 732 735 736 747 740 731 727 728 695 705 724 727 729 725 726 725
824 817 814 804 821 821 820 821 826 830 827 826 823 826 821 818 816 799 799 799 801 803 805 799 791 792 756 732 735 738 736 734 735 733 739 745 728 696 701 721 729 732 733 730 726
830 828 823 821 827 828 831 824 825 826 826 828 826 821 828 822 813 809 805 799 803 802 799 801 796 789 785 764 761 765 757 751 751 758 748 731 723 714 712 725 732 732 733 731 730
836 841 846 835 834 834 831 831 833 838 832 828 824 826 833 832 828 814 811 808 805 801 798 799 801 797 791 783 777 769 763 757 760 755 755 737 734 728 731 742 742 739 736 734 735
849 852 848 840 836 833 831 838 839 843 839 834 838 837 834 834 830 827 822 823 817 804 803 804 808 803 798 780 772 769 759 752 748 748 743 741 742 740 745 743 744 741 737 737 737
857 857 854 840 838 839 846 844 844 842 837 836 838 840 835 828 827 827 824 819 815 815 816 815 812 805 797 777 773 770 748 744 742 738 744 750 758 753 751 749 750 746 743 741 739